Wetbulb
63.82 62.01 60.45 58.74 57.71 56.63 55.56 54.55 54.16 54.45 54.72 55.12 55.08 54.38 53.44 52.83 52.31 51.90 51.77 51.19 50.94 50.14
62.77 60.90 59.01 57.69 57.04 55.98 55.30 55.11 54.61 54.57 54.11 54.45 54.52 54.32 53.07 52.40 51.92 52.28 51.28 50.83 49.74 48.17
62.32 60.51 58.82 57.84 56.44 55.94 54.34 53.84 53.50 53.53 53.53 53.85 53.81 53.92 52.77 51.52 51.79 51.72 50.27 48.36 46.93 46.18
60.65 59.41 58.48 57.41 56.00 54.25 53.48 53.10 53.09 53.68 53.87 53.81 53.41 52.93 52.15 52.13 52.42 50.97 49.27 48.62 47.21 45.72
59.30 58.02 57.30 56.21 54.60 53.42 52.54 52.52 53.23 53.82 54.47 54.81 53.85 52.99 53.04 53.19 52.35 50.63 48.65 46.64 44.96 43.11
57.89 57.39 56.00 54.52 52.80 52.78 52.10 52.19 53.09 53.94 54.06 54.08 53.68 52.89 52.55 52.60 52.10 51.08 47.48 45.20 43.21 42.20
57.69 56.71 55.23 53.36 52.68 52.35 52.20 52.26 52.32 52.66 53.13 53.21 52.96 52.78 52.75 50.87 49.04 47.78 46.71 45.71 43.21 42.56
57.50 56.59 54.15 52.80 52.37 52.23 52.52 51.65 51.00 50.47 49.84 50.27 51.56 52.74 50.93 48.66 47.19 46.29 45.49 45.72 43.84 42.89
55.56 54.21 53.12 52.72 52.43 51.63 50.44 49.68 49.55 48.80 47.98 46.80 47.79 48.05 50.07 48.90 45.20 44.96 43.74 40.88 39.99 40.53
53.98 53.28 53.22 53.03 51.36 49.54 48.42 47.88 46.94 45.71 45.21 43.00 41.79 45.01 47.75 48.97 45.46 41.77 38.52 37.82 37.98 39.69
53.54 53.25 53.11 52.16 49.95 48.03 47.36 46.55 45.21 43.72 42.69 41.43 40.38 43.23 46.10 46.84 42.57 38.81 38.55 38.59 37.91 36.88
53.78 53.17 52.80 51.03 49.23 47.91 45.88 44.04 41.84 41.38 40.17 39.99 39.78 42.69 45.17 42.84 39.05 38.19 38.01 38.90 38.52 37.56
53.88 53.31 52.50 50.75 49.41 47.55 45.39 43.38 41.89 37.68 37.48 42.03 41.15 43.07 42.59 40.73 39.32 37.44 38.28 38.39 37.78 41.83
53.91 52.90 52.04 50.65 49.73 47.44 44.70 40.81 37.01 36.47 35.81 37.24 40.49 41.79 40.97 40.93 39.44 38.46 37.40 36.98 36.94 37.73
MSLP
1008.55 1009.08 1010.19 1010.95 1011.85 1012.79 1013.51 1014.05 1014.66 1015.13 1015.61 1015.75 1015.80 1015.87 1016.28 1016.50 1016.87 1017.33 1017.55 1017.89 1018.19 1018.50
1008.72 1008.96 1010.09 1011.13 1011.93 1012.79 1013.67 1014.29 1014.60 1015.46 1016.13 1016.23 1016.20 1016.14 1016.57 1016.82 1017.32 1017.67 1018.25 1018.34 1018.55 1018.69
1008.07 1008.64 1010.01 1010.75 1011.85 1012.90 1013.77 1014.21 1015.14 1015.76 1016.25 1016.54 1016.65 1016.49 1016.88 1017.41 1017.89 1018.03 1018.88 1018.96 1019.08 1018.99
1008.13 1008.97 1010.07 1010.96 1012.13 1013.26 1013.73 1014.29 1015.36 1015.87 1016.56 1016.68 1016.86 1016.85 1017.39 1017.65 1018.60 1018.71 1019.20 1019.45 1019.43 1019.31
1008.35 1009.13 1010.27 1011.62 1012.49 1013.22 1014.02 1014.67 1015.50 1015.90 1016.67 1017.05 1016.93 1017.10 1017.67 1018.28 1018.98 1018.90 1019.84 1020.14 1019.50 1019.71
1008.53 1009.33 1010.61 1011.95 1012.76 1013.20 1014.10 1014.95 1015.77 1016.04 1016.67 1017.29 1017.08 1017.46 1018.10 1018.69 1019.32 1019.36 1020.07 1020.49 1019.84 1019.84
1008.81 1009.52 1010.31 1011.49 1012.70 1013.42 1014.31 1015.35 1016.20 1016.39 1017.02 1017.47 1017.31 1017.68 1018.47 1019.09 1019.41 1019.65 1020.17 1020.79 1020.19 1019.87
1008.80 1009.62 1010.69 1011.92 1013.31 1013.35 1014.83 1015.63 1016.58 1016.83 1017.40 1017.81 1017.84 1018.12 1018.53 1019.46 1019.73 1019.84 1020.25 1021.09 1020.39 1020.25
1009.26 1010.14 1010.84 1012.41 1013.13 1014.36 1014.87 1015.96 1017.04 1017.14 1017.84 1018.05 1018.25 1018.64 1018.82 1019.63 1019.91 1020.22 1020.39 1020.98 1020.45 1020.45
1009.37 1010.68 1011.47 1012.47 1013.27 1014.26 1015.34 1016.47 1016.97 1017.88 1018.31 1018.53 1018.90 1019.16 1019.37 1019.84 1020.19 1020.22 1020.79 1020.79 1020.65 1020.64
1009.73 1010.80 1011.70 1012.12 1013.34 1014.91 1015.87 1016.57 1017.29 1018.07 1018.61 1018.55 1019.25 1019.52 1019.53 1019.86 1020.45 1020.51 1020.58 1020.87 1021.03 1021.12
1009.34 1010.66 1011.85 1012.39 1013.85 1015.11 1015.93 1016.95 1017.11 1017.97 1018.84 1019.11 1019.54 1019.53 1019.69 1020.09 1020.37 1020.81 1020.78 1021.04 1021.31 1021.49
1008.47 1009.80 1012.31 1013.01 1014.12 1015.15 1016.13 1017.05 1017.47 1018.42 1019.37 1019.20 1019.28 1019.48 1019.73 1020.19 1020.44 1020.96 1021.00 1021.30 1021.66 1021.70
1008.02 1010.64 1012.31 1013.38 1014.30 1015.14 1016.25 1017.38 1018.39 1018.93 1019.70 1019.53 1019.15 1019.80 1019.78 1020.01 1020.46 1020.71 1021.14 1021.83 1021.96 1022.06
Wind_Speed
13 10 10 9 9 7 6 5 5 6 6 6 6 6 6 5 6 6 6 7 6 4
12 14 11 11 9 7 7 6 7 7 6 6 6 7 7 6 6 6 5 5 6 4
13 13 13 12 12 10 7 7 7 6 6 6 6 7 7 6 5 8 4 4 6 4
12 13 11 11 11 10 9 9 7 7 6 6 6 7 6 7 6 8 6 4 5 6
14 14 13 12 11 11 10 7 7 7 7 6 7 7 7 7 5 8 6 4 6 6
14 14 15 13 11 11 10 7 6 7 7 6 7 7 7 7 5 7 6 4 6 5
15 15 16 14 12 11 9 7 6 6 7 5 7 8 8 7 7 7 5 4 5 5
14 13 14 13 11 11 9 8 7 8 6 6 6 5 9 7 6 7 6 3 4 6
14 14 15 12 13 11 11 8 8 8 7 7 4 8 12 8 6 6 6 4 6 5
14 14 14 13 13 12 11 9 9 7 7 7 6 7 11 11 6 6 5 5 5 5
15 14 13 14 13 10 9 10 9 7 6 7 4 7 11 12 7 6 6 6 5 4
17 14 13 15 13 10 10 8 6 6 6 6 5 8 13 10 6 6 6 5 4 3
18 17 13 13 13 8 8 8 8 7 4 6 6 9 13 9 5 6 4 4 4 5
18 15 13 12 11 11 10 9 7 8 4 5 6 7 11 10 5 5 5 3 3 4
Wind_Direction
149 139 141 144 140 137 129 126 127 108 117 120 112 103 94 84 83 87 82 88 74 74
151 140 139 129 121 120 126 126 112 120 124 119 117 108 102 94 95 89 84 85 86 81
151 131 134 131 132 130 127 113 122 130 128 123 110 111 102 91 102 95 76 79 81 63
135 129 128 125 128 138 130 127 130 136 141 124 119 103 100 103 100 92 92 72 78 65
139 132 129 137 140 141 130 126 138 134 127 129 118 114 116 108 112 104 92 82 71 48
137 136 137 139 144 132 132 132 137 125 131 138 131 116 101 108 106 104 102 78 71 56
152 150 145 142 140 135 122 121 120 117 116 125 116 111 110 106 106 107 102 85 69 56
142 139 132 133 139 116 119 117 117 106 97 97 105 120 117 118 122 118 110 71 61 50
140 138 134 136 125 127 115 112 123 110 120 110 91 108 120 127 117 113 101 87 50 42
137 140 137 132 126 123 125 128 114 111 118 107 92 100 121 119 113 106 102 83 70 50
139 138 136 128 123 123 129 131 131 122 126 116 110 136 124 117 118 101 98 96 84 67
141 138 137 131 136 134 129 133 117 129 135 131 126 152 133 121 115 103 90 81 64 36
143 133 149 139 135 125 123 116 110 104 128 136 130 156 141 130 125 105 101 54 35 27
131 135 139 131 126 122 117 110 104 103 101 103 114 127 127 124 117 128 106 89 51 9